www.pogodaiklimat.ru

Погода и климат >> Архив погоды >> Канада >> Нунавут >> Арктик Бей


ПОГОДА в Арктик Бей

  • Прогноз погоды в Арктик Бей
  • Монитор погоды в Арктик Бей

АРХИВ ПОГОДЫ в Арктик Бей

Время (UTC), дата Ветер
(напр.,м/с)
 
Видим.   Явления Облачность Т
(С)
Тd
(С)
f
(%)
Тe
(С)
Тes
(С)
Комфортность P
(гПа)
Po
(гПа)
Тmin
(С)
Tmax
(С)
R
(мм)
R24
(мм)
S
(см)
03 10.06 ЮВ 6 н/о н/о +10.2 -0.6 47 +7 +7 1022.1 1020.8
06 10.06 В 5 н/о н/о +8.0 -0.9 53 +5 +5 1020.5 1019.2 -2.8 +11.3 5
09 10.06 В 6 н/о н/о +7.8 -0.5 56 +4 +4 1018.1 1016.8
12 10.06 ЮВ 6 н/о н/о +5.6 +2.0 78 +1 +1 1016.5 1015.2 +4.9 +11.3
15 10.06 ЮВ 11 н/о н/о +6.3 +2.0 74 0 0 1013.2 1011.9
18 10.06 В 12 н/о н/о +4.1 +3.1 93 -3 -3 1010.2 1008.9 +0.9 +8.4 0.4
21 10.06 ЮВ 15 н/о {осадки} н/о +4.8 +3.6 92 -3 -3 1006.4 1005.1 2
00 11.06 ЮВ 16 н/о {осадки} н/о +4.5 +3.1 91 -4 -4 1003.5 1002.2 +4.0 +6.5 2
03 11.06 ЮВ 3 н/о {осадки} н/о +5.4 +0.4 70 +2 +2 1005.1 1003.8 0.2
06 11.06 ЮВ 8 н/о {осадки} н/о +4.8 -0.3 70 -1 -1 1004.4 1003.1 +3.8 +8.4 0.2 23
09 11.06 ЮВ 9 н/о н/о +3.8 -0.2 75 -3 -3 1004.2 1002.9
12 11.06 ЮВ 10 н/о н/о +4.5 -0.6 69 -2 -2 1003.9 1002.6 +3.2 +8.4
15 11.06 ЮВ 9 н/о н/о +6.9 -0.3 60 +2 +2 1004.0 1002.7
18 11.06 ЮВ 12 н/о н/о +5.8 +0.1 67 -1 -1 1004.3 1003.0 +3.2 +7.8
21 11.06 ЮВ 8 н/о н/о +5.7 +0.8 71 0 0 1005.8 1004.5
00 12.06 ЮВ 5 н/о н/о +5.3 +0.4 71 +1 +1 1006.7 1005.4 +3.2 +7.8
03 12.06 ЮВ 5 н/о н/о +4.7 +0.1 72 0 0 1007.5 1006.2
06 12.06 СЗ 2 н/о н/о +2.6 +0.3 85 0 0 1008.7 1007.4 +2.4 +7.8 13
09 12.06 ЮВ 2 н/о н/о +3.7 +0.5 80 +1 +1 1009.4 1008.1
12 12.06 В 3 н/о {осадки} н/о +4.0 +1.7 85 +1 +1 1011.0 1009.7 +2.3 +7.8 0.7
15 12.06 Ю 1 н/о н/о +3.5 +1.7 88 +2 +2 1011.2 1009.9 0.3
18 12.06 З 2 н/о н/о +3.1 +1.0 86 0 0 1011.0 1009.7 +2.3 +4.8 0.3
21 12.06 З 1 н/о н/о +2.8 +1.2 89 +2 +2 1011.2 1009.9
00 13.06 Ю 2 н/о н/о +3.7 +2.4 91 +1 +1 1011.8 1010.5 +2.0 +4.3
03 13.06 ЮВ 2 н/о {осадки} н/о +4.1 +1.9 86 +1 +1 1011.9 1010.6 2
06 13.06 ЮВ 3 н/о {осадки} н/о +4.6 +2.2 84 +1 +1 1011.3 1010.0 +2.0 +5.5 4 1
09 13.06 ЮВ 7 н/о н/о +4.5 +1.7 82 -1 -1 1010.4 1009.1
12 13.06 ЮВ 9 н/о н/о +4.7 +1.6 80 -2 -2 1010.9 1009.6 +3.0 +5.5
15 13.06 ЮВ 8 н/о н/о +4.7 +0.7 75 -1 -1 1012.0 1010.7
18 13.06 ЮВ 4 н/о {осадки} н/о +4.2 +0.2 75 0 0 1014.8 1013.5 +2.0 +5.2 0.2
21 13.06 ЮВ 4 н/о н/о +3.7 +0.4 79 -0 -0 1016.7 1015.4
00 14.06 Ю 5 н/о {осадки} н/о +5.6 +0.9 72 +2 +2 1018.0 1016.7 +3.1 +5.6 0.2
03 14.06 С 1 н/о н/о +2.8 +1.1 89 +1 +1 1018.5 1017.2
06 14.06 СЗ 2 н/о н/о +1.8 +0.6 92 -2 -2 1018.9 1017.6 +1.4 +6.0 15
09 14.06 З 3 н/о н/о +1.2 +0.5 95 -3 -3 1019.3 1018.0
12 14.06 З 2 н/о н/о +1.7 +0.7 93 -1 -1 1019.6 1018.3 +1.0 +6.0
18 14.06 З 1 н/о н/о +3.1 +1.0 86 +2 +2 1019.6 1018.3
21 14.06 З 3 н/о н/о +4.2 +1.0 80 +1 +1 1019.8 1018.5
00 15.06 З 4 н/о н/о +3.5 0.0 78 -1 -1 1020.3 1019.0
03 15.06 СЗ 4 н/о н/о +4.6 +0.4 74 +1 +1 1020.6 1019.3
06 15.06 штиль 0 н/о н/о +2.6 -0.3 81 +2 +2 1021.0 1019.7
09 15.06 ЮЗ 1 н/о н/о +2.1 -0.2 85 0 0 1021.5 1020.2
12 15.06 н/о н/о +3.0 +0.5 84 1021.9 1020.6 +1.7
15 15.06 СЗ 3 н/о н/о +3.1 +0.4 82 -0 -0 1022.3 1021.0
18 15.06 С 2 н/о н/о +3.4 +1.0 84 +1 +1 1022.5 1021.2 +1.4 +4.5
21 15.06 штиль 0 н/о н/о +4.5 +1.1 79 +4 +4 1022.4 1021.1
00 16.06 ЮВ 5 н/о н/о +7.1 +1.4 67 +4 +4 1021.9 1020.6 +1.4 +8.2
03 16.06 ЮВ 5 н/о н/о +7.4 +1.7 67 +4 +4 1021.3 1020.0
06 16.06 ЮВ 7 н/о н/о +7.6 +1.6 66 +3 +3 1020.0 1018.7 +1.4 +8.2
09 16.06 ЮВ 8 н/о н/о +7.7 +1.9 67 +3 +3 1019.3 1018.0
12 16.06 ЮВ 8 н/о н/о +7.6 +1.8 67 +3 +3 1018.3 1017.0 +5.1 +8.2
15 16.06 ЮВ 7 н/о н/о +8.7 +2.6 66 +5 +5 1017.9 1016.6
18 16.06 ЮВ 8 н/о н/о +10.0 +2.9 61 +6 +6 1016.8 1015.5 +3.1 +10.6
21 16.06 Ю 6 н/о н/о +10.1 +3.8 65 +7 +7 1016.4 1015.1
00 17.06 ЮВ 7 н/о н/о +9.4 +3.4 66 +6 +6 1015.5 1014.2 +6.1 +10.6

 

Местоположение метеостанции Арктик Бей (Нунавут, Канада): широта 73.00 долгота -85.01 высота над уровнем моря 10 м.

В архиве по умолчанию представлена погода в Арктик Бей за последнюю неделю. Архивные данные за месяц целиком и за предыдущие месяцы, начиная с января 2011 года, Вы можете получить, выбрав интересующий диапазон дат из раскрывающегося списка и нажав кнопку "Ввод!".


*Определитесь, кто Вы:
робот инопланетянин человек

Внимание! Время в таблицах - всемирное. Для получения местного времени необходимо прибавить поправку, которая равна -6 ч.

Смотрите также архив погоды в соседних городах и на ближайших метеорологических станциях:

Погода в Понд-Инлете (Нунавут, Канада) (233 км)
Погода в Понд-Инлете (Нунавут, Канада) (233 км)
Погода в Аэропорту Ресольют Бэй (Нунавут, Канада) (362 км)
Погода в Ресольют Бэй (Нунавут, Канада) (362 км)
Погода на Острове Роули (Нунавут, Канада) (486 км)
Погода в Холл Бич (Нунавут, Канада) (489 км)
Погода в Талойоаке (Нунавут, Канада) (490 км)
Погода в Кугааруке (Нунавут, Канада) (527 км)
Погода в Kitsissut (Гренландия) (532 км)
Погода в Кам Фор (Нунавут, Канада) (536 км)

Пояснения к столбцам:

Ветер - указаны скорость ветра в м/с - средняя за 10 мин, порывы в срок и между сроками (в фигурных скобках) и направление, откуда дует ветер: С - северный, СВ - северо-восточный, В - восточный, ЮВ - юго-восточный, Ю - южный, ЮЗ - юго-западный, З - западный, СЗ - северо-западный.
Видимость - горизонтальная дальность видимости в метрах или километрах. При видимости от 1 до 10 км при отсутствии осадков обычно наблюдается дымка, при ухудшении видимости до 1 км и менее - туман. В сухую погоду видимость может ухудшаться дымом, пылью или мглою.
Явления - указаны атмосферные явления, наблюдавшиеся в срок или в последний час перед сроком; фигурными скобками обозначены явления, наблюдавшиеся между сроками (за 1-3 часа до срока); квадратными скобками обозначены град или гололедные отложения с указанием их диаметра в мм.
Облачность - указаны через наклонную черту общая и нижняя облачность в баллах и высота нижней границы облаков в метрах; квадратными скобками обозначены формы облаков: Ci - перистые, Cs - перисто-слоистые, Cc - перисто-кучевые, Ac - высококучевые, As - высокослоистые, Sc - слоисто-кучевые, Ns - слоисто-дождевые, Cu - кучевые, Cb - кучево-дождевые. Подробнее классификацию облаков см. в Атласе облаков (PDF).
T - Температура воздуха - температура, измеренная на высоте 2 м над землей.
Td - Температура точки росы - температура, при понижении до которой содержащийся в воздухе водяной пар достигнет насыщения.
f - Относительная влажность воздуха - влажноcть воздуха, измеренная на высоте 2 м над землей.
Te - Эффективная температура - температура, которую ощущает одетый по сезону человек в тени. Характеристика душности погоды. При расчете учитывается влияние влажности воздуха и скорости ветра на теплоощущения человека.
Tes - Эффективная температура на солнце - температура, которую ощущает человек, с поправкой на солнечный нагрев. Характеристика знойности погоды. Зависит от высоты солнца над горизонтом, облачности и скорости ветра. Ночью, в пасмурную погоду, а также при ветре 12 м/с и более поправка равна нулю.
P - Атмосферное давление - приведенное к уровню моря атмосферное давление.
Po - Атмосферное давление - измеренное на уровне метеостанции атмосферное давление.
Tmin - Минимальная температура - минимум температуры воздуха на высоте 2 м над землей.
Tmax - Максимальная температура - максимум температуры воздуха на высоте 2 м над землей.
R - Количество осадков - Количество выпавших осадков за период времени, мм. При наведении курсора мыши на число - период времени, за который выпало указанное количество осадков.
R24 - Количество осадков - Количество выпавших осадков за 24 часа, мм.
S - Снежный покров - Высота снежного покрова, см. При наведении курсора мыши на число - состояние снежного покрова и степень покрытия местности в баллах.